Location: Koussan�
(15.2012°N, 12.5548°W)
Time: 11:23:19
(UTC+00:00)

EO 1 Delta rocket - Pass Details

Date: 20 October 2020
Orbit: 696 x 1793 km, 95.4° (Epoch: 27 November)

Event Time Altitude Azimuth Distance (km) Brightness Sun altitude
Exits shadow 20:12:38 42° 178° (S) 996 4.5 -26.2°
Drops below altitude 10° 20:15:42 10° 186° (S) 2,185 6.5 -26.9°
Sets 20:18:01 0° 187° (S) 3,159 7.3 -27.5°
